Regional Weather Roundup
Issued by NWS

Home | Current Version | Previous Version | Text Only | Print | Product List | Glossary On
Versions: 1 2 3 4 5 6 7 8 9 10 11 12 13 14 15 16 17 18 19 20 21 22 23 24 25 26 27 28 29 30 31 32 33 34 35 36 37 38 39 40 41 42 43 44 45 46 47 48 49 50
000
ASUS43 KLOT 132104
RWRIL

ILLINOIS REGIONAL WEATHER ROUNDUP
NATIONAL WEATHER SERVICE CHICAGO/ROMEOVILLE IL
300 PM CST WED NOV 13 2019

NOTE: "FAIR" INDICATES FEW OR NO CLOUDS BELOW 12,000 FEET WITH NO
SIGNIFICANT WEATHER AND/OR OBSTRUCTIONS TO VISIBILITY.

* THESE STATIONS ARE NOT UNDER NWS QUALITY CONTROL. THEY ALSO MAY NOT
  REPORT WEATHER SUCH AS PRECIPITATION OR FOG.

ILZ001-002-007-009-015-016-024-132200-
NORTHWEST ILLINOIS

CITY           SKY/WX    TMP DP  RH WIND       PRES   REMARKS
MOLINE         CLOUDY    31  15  52 SW8       30.03S WCI  23
STERLING*      PTSUNNY   30  16  56 CALM      30.04F
SAVANNA*       CLOUDY    28  16  59 S9        30.03S WCI  20
$$

ILZ003-004-008-010-011-017-018-132200-
NORTH CENTRAL ILLINOIS

CITY           SKY/WX    TMP DP  RH WIND       PRES   REMARKS
ROCKFORD       CLOUDY    25  14  63 S10       30.04F WCI  15
FREEPORT*      CLOUDY    25  14  64 SW9       30.03F WCI  15
ROCHELLE*      PTSUNNY   26  14  60 S10       30.04F WCI  16
DE KALB*       FAIR      25  13  59 S17       30.04S WCI  12
PERU*          FAIR      25  12  56 S16       30.06F WCI  12
$$

ILZ005-006-012>014-019>023-132200-
NORTHEAST ILLINOIS

CITY           SKY/WX    TMP DP  RH WIND       PRES   REMARKS
CHICAGO-OHARE  CLOUDY    24   9  52 S12G24    30.04F WCI  13
CHICAGO-MIDWAY CLOUDY    26   8  46 S20G29    30.07F WCI  12
SCHAUMBURG     NOT AVBL
AURORA         FAIR      25  11  55 S14       30.04F WCI  13
LANSING*       FAIR      25  14  62 S17G24    30.09F WCI  12
JOLIET*        FAIR     N/A N/A N/A S9G18     30.07S
WAUKEGAN       FAIR      24   8  50 SW15      30.03F WCI  11
DUPAGE AIRPORT FAIR      24  10  55 S16G26    30.04F WCI  11
KANKAKEE*      PTSUNNY   26  11  54 S16G22    30.11S WCI  13
WHEELING       FAIR      26   8  46 SW9G20    30.07R WCI  17
MORRIS*        FAIR      25  12  56 S15       30.06F WCI  13
ROMEOVILLE*    FAIR      25  12  57 S15       30.07S WCI  13
NORTHERLY ISL    N/A     26   9  48 S20         N/A  WCI  13
$$

LMZ740>746-132200-
SOUTHERN LAKE MICHIGAN

STATION/POSITION SKY/WX   TEMP    WIND        PRES    VSBY  WAVE
                          AIR SEA DIR/SP/G                  HT/PER
                          (F)     (DEG/KT/KT) (MB)    (MI)  (FT/S)
SOUTHERN BUOY                 45  190/ 25/ 33   N/A
WAUKEGAN HARBOR            28 39  230/ 10/ 16   N/A           3/ 5
WILMETTE HARBOR               41  190/ 16/ 21 1018.5F         3/ 4
HARRISON CRIB              26     200/ 26/ 29   N/A
NORTHERLY ISL              26     180/ 11/ 22   N/A
CALUMET HARBOR             25     170/ 15/ 19 1017.7F
MICHIGAN CITY              24     180/ 15/ 20   N/A
$$

ILZ025>027-034>036-040-047-049-050-058-095>099-132200-
WEST-CENTRAL ILLINOIS

CITY           SKY/WX    TMP DP  RH WIND       PRES   REMARKS
QUINCY         CLOUDY    32  17  54 S7        30.04S WCI  26
GALESBURG*     PTSUNNY   29  18  64 W7        30.04F WCI  22
MACOMB*        PTSUNNY   30  16  55 S10       30.07S WCI  21
JACKSONVILLE*  CLOUDY    29  15  55 S10       30.07F WCI  20
PITTSFIELD*    CLOUDY    32  19  59 S9        30.06F WCI  24
$$

ILZ028>032-037-038-041>044-048-051>054-059>061-132200-
CENTRAL ILLINOIS

CITY           SKY/WX    TMP DP  RH WIND       PRES   REMARKS
PONTIAC        CLOUDY    26  13  55 S15G24    30.09R WCI  14
BLOOMINGTON    FAIR      26  13  57 S21G28    30.06F WCI  12
DECATUR        FAIR      29  11  47 S14G25    30.12F WCI  18
PEORIA         CLOUDY    27  15  61 S14G24    30.07R WCI  16
LACON*         FAIR      27  13  55 SW10      30.07R WCI  17
LINCOLN*       PTSUNNY   28  15  57 S16       30.09S WCI  17
SPRINGFIELD    PTSUNNY   27  14  58 S14G21    30.09F WCI  16
TAYLORVILLE    FAIR      28  13  53 S17       30.12S WCI  15
$$

ILZ033-039-045-046-055>057-062-063-132200-
EAST-CENTRAL ILLINOIS

CITY           SKY/WX    TMP DP  RH WIND       PRES   REMARKS
CHAMPAIGN      FAIR      27  16  63 S15       30.13F WCI  15
DANVILLE*      FAIR      28  14  56 S10       30.12F WCI  18
RANTOUL*       FAIR      25  17  70 S20       30.13S WCI  11
MATTOON        FAIR      27  12  53 S16G25    30.14F WCI  15
PARIS*         FAIR      28  18  65 SE13      30.18F WCI  18
$$

ILZ079-100>102-132200-
SOUTHWEST ILLINOIS

CITY           SKY/WX    TMP DP  RH WIND       PRES   REMARKS
ALTON          PTSUNNY   30  18  59 SE9       30.11F WCI  22
BELLEVILLE     SUNNY     34  15  47 S9G18     30.12F WCI  26
CAHOKIA*       SUNNY     33  18  53 SE14      30.11F WCI  23
SPARTA*        SUNNY     34  17  50 S12G17    30.17F WCI  25
$$

ILZ064>066-069>071-074>076-080>082-084>086-088>090-092>094-132200-
SOUTH-CENTRAL ILLINOIS

CITY           SKY/WX    TMP DP  RH WIND       PRES   REMARKS
CARBONDALE     FAIR      37  13  37 SW13      30.20F WCI  29
EFFINGHAM*     FAIR      29   5  35 SE15      30.20F WCI  18
MARION         PTSUNNY   34  18  51 S12       30.22F WCI  25
MT. VERNON     FAIR      34  18  52 S13       30.20F WCI  25
CENTRALIA*     SUNNY     33  12  41 S8        30.16F WCI  27
SALEM*         FAIR      33  14  45 S9        30.17F WCI  26
$$

ILZ067-068-072-073-078-083-087-091-132200-
SOUTHEAST ILLINOIS

CITY           SKY/WX    TMP DP  RH WIND       PRES   REMARKS
LAWRENCEVILLE  FAIR      31  16  54 S7        30.24R WCI  24
FAIRFIELD*     FAIR      31  19  59 S5        30.21F WCI  27
HARRISBURG*    FAIR      37   8  29 SW9       30.22F WCI  31
ROBINSON*      FAIR      28  15  58 S8        30.23F WCI  20
$$

ABBREVIATIONS USED IN REMARKS
   TC - TEMPERATURE IN CELSIUS
  WCI - WIND CHILL INDEX
   HX - HEAT INDEX
  VSB - VISIBILITY
$$




USA.gov is the U.S. government's official web portal to all federal, state and local government web resources and services.